Flag for Canada Weather past 2 weeks in Victoria, British Columbia, Canada

Now
55 °F

Passing clouds.


Feels Like: 55 °F
Forecast: 53 / 62 °F
Wind: 3 mph from West

Location: Victoria Int. Airportb. C.

Current Time: Aug 30, 2014 at 1:13:18 AM

Latest Report: Aug 30, 2014 at 12:00 AM


Visibility: 30 mi

Pressure: 29.93 "Hg

Humidity: 88%

Dew point: 52 °F

Location of VictoriaLocation

Historic Weather in Victoria — Graph

°F

Victoria temperature yesterday

Maximum temperature yesterday: 64 °F (at 12:00 PM)
Minimum temperature yesterday: 55 °F (at 6:00 AM)
Average temperature yesterday: 60 °F

Past Weeks' High & Low Weather Summary

 TemperatureHumidityPressure
High79 °F (Aug 26, 5:00 PM)100% (Aug 15, 8:00 AM)30.15 "Hg (Aug 15, 8:00 AM)
Low50 °F (Aug 21, 6:00 AM)47% (Aug 24, 3:00 PM)29.76 "Hg (Aug 19, 7:00 PM)
Average63 °F76%29.99 "Hg
* Reported Aug 15 1:00 AM — Midnight between Aug 29 and Aug 30, Victoria, Weather by CustomWeather, © 2014

Note: Actual official high and low records may vary slightly from our data, if they occured in-between our weather recording intervals... More about our weather records

Advertising

Victoria weather history for previous 24 hours

 ConditionsComfort  
Time TempWeatherWind HumidityBarometerVisibility
12:00 AM
Aug 30
55 °FPassing clouds.3 mph88%29.93 "Hg30 mi
11:00 PM
Aug 29
61 °FPassing clouds.No wind72%29.92 "Hg30 mi
10:00 PM59 °FPassing clouds.5 mph77%29.93 "Hg30 mi
9:00 PM61 °FBroken clouds.2 mph77%29.93 "Hg30 mi
8:00 PM61 °FScattered clouds.3 mph77%29.93 "Hg30 mi
7:00 PM64 °FBroken clouds.5 mph68%29.93 "Hg30 mi
6:00 PM61 °FPartly sunny.6 mph72%29.93 "Hg30 mi
5:00 PM61 °FPartly sunny.14 mph68%29.93 "Hg30 mi
4:00 PM63 °FBroken clouds.13 mph68%29.94 "Hg30 mi
3:00 PM59 °FMostly cloudy.14 mph77%29.94 "Hg30 mi
2:00 PM64 °FPartly sunny.12 mph60%29.94 "Hg30 mi
12:00 PM64 °FBroken clouds.8 mph64%29.95 "Hg30 mi
11:00 AM63 °FBroken clouds.7 mph64%29.95 "Hg30 mi
10:00 AM59 °FPartly sunny.7 mph77%29.95 "Hg30 mi
9:00 AM61 °FPartly sunny.5 mph63%29.95 "Hg30 mi
8:00 AM59 °FMostly cloudy.2 mph68%29.95 "Hg30 mi
7:00 AM57 °FPassing clouds.No wind72%29.94 "Hg30 mi
6:00 AM55 °FPassing clouds.No wind77%29.93 "Hg30 mi
5:00 AM57 °FPassing clouds.No wind77%29.95 "Hg30 mi
4:00 AM59 °FPassing clouds.3 mph72%29.95 "Hg30 mi
3:00 AM61 °FPassing clouds.3 mph72%29.96 "Hg30 mi
2:00 AM57 °FPassing clouds.2 mph88%29.96 "Hg30 mi
1:00 AM59 °FPassing clouds.5 mph77%29.97 "Hg30 mi
Weather by CustomWeather, © 2014

See weather overviewHow to use our weather pages